N1SU-13 Weather Reports


Display with metric or nautical units.
time (UTC)temp
F
wind
direction
speed
MPH
gust
MPH
rain 1hr
in
rain 24hr
in
rain mn
in
humidity
%
barometer
mb
20260505093652 54 0.0 0.0 0.00 0.00 0.00 83 1011.7
20260505092606 55 0.0 0.0 0.00 0.00 0.00 82 1011.6
20260505091511 55 0.0 0.0 0.00 0.00 0.00 82 1011.5
20260505091305 55 0.0 0.0 0.00 0.00 0.00 81 1011.4
20260505090411 55 0.0 0.0 0.00 0.00 0.00 81 1011.3
20260505085413 56 0.0 0.0 0.00 0.00 0.00 81 1011.3
20260505084350 56 0.0 0.0 0.00 0.00 0.00 80 1011.1
20260505083215 56 0.0 0.0 0.00 0.00 0.00 80 1011.2
20260505082116 56 0.0 0.0 0.00 0.00 0.00 80 1011.1
20260505080949 57 0.0 0.0 0.00 0.00 0.00 79 1011.0
20260505075941 57 0.0 0.0 0.00 0.00 0.00 78 1010.9
20260505075004 57 0.0 0.0 0.00 0.00 0.00 77 1010.8
20260505073901 57 0.0 0.0 0.00 0.00 0.00 78 1010.7
20260505072838 58 0.0 0.0 0.00 0.00 0.00 77 1010.6
20260505071718 59 0.0 0.0 0.00 0.00 0.00 76 1010.4
20260505070744 59 0.0 0.0 0.00 0.00 0.00 75 1010.3
20260505065659 59 0.0 0.0 0.00 0.00 0.00 74 1010.3
20260505064603 60 0.0 0.0 0.00 0.00 0.00 73 1010.1
20260505063511 61 0.0 0.0 0.00 0.00 0.00 71 1010.0
20260505062344 61 0.0 0.0 0.00 0.00 0.00 70 1009.9
20260505061349 62 0.0 0.0 0.00 0.00 0.00 70 1009.7
20260505060239 62 0.0 0.0 0.00 0.00 0.00 68 1009.7
20260505055201 63 0.0 0.0 0.00 0.00 0.00 67 1009.8
20260505054237 63 0.0 0.0 0.00 0.00 0.00 67 1009.5
20260505053234 64 0.0 0.0 0.00 0.00 0.00 66 1009.4
20260505052215 64 0.0 0.0 0.00 0.00 0.00 65 1009.4
20260505051043 65 0.0 0.0 0.00 0.00 0.00 64 1009.4
20260505041658 68 0.0 0.0 0.00 0.00 0.00 59 1008.4
20260505040710 69 0.0 0.0 0.00 0.00 0.00 58 1008.2
20260505035624 70 0.0 0.0 0.00 0.00 0.00 56 1008.0
20260505034503 71 0.0 0.0 0.00 0.00 0.00 55 1007.8
20260505033537 73 0.0 0.0 0.00 0.00 0.00 53 1007.6
20260505032534 74 0.0 0.0 0.00 0.00 0.00 50 1007.4
20260505031431 76 0.0 0.0 0.00 0.00 0.00 47 1007.2
20260505030328 78 0.0 0.0 0.00 0.00 0.00 43 1006.9
20260505025403 82 0.0 0.0 0.00 0.00 0.00 38 1006.7
20260505024327 83 0.0 0.0 0.00 0.00 0.00 36 1006.6
20260505023233 85 0.0 0.0 0.00 0.00 0.00 33 1006.5
20260505022238 85 0.0 0.0 0.00 0.00 0.00 31 1006.5
20260505021219 85 0.0 0.0 0.00 0.00 0.00 31 1006.5
20260505020258 85 0.0 0.0 0.00 0.00 0.00 31 1006.6
20260505015143 84 0.0 0.0 0.00 0.00 0.00 32 1006.7
20260505014154 83 0.0 0.0 0.00 0.00 0.00 31 1006.7
20260505013046 82 0.0 0.0 0.00 0.00 0.00 31 1006.7
20260505012032 82 0.0 0.0 0.00 0.00 0.00 33 1006.8
20260505010907 80 0.0 0.0 0.00 0.00 0.00 34 1007.1
20260505005739 80 0.0 0.0 0.00 0.00 0.00 33 1007.1
20260505004749 79 0.0 0.0 0.00 0.00 0.00 34 1007.2
20260505003816 80 0.0 0.0 0.00 0.00 0.00 33 1007.1
20260505002700 79 0.0 0.0 0.00 0.00 0.00 33 1007.1
20260505001523 79 0.0 0.0 0.00 0.00 0.00 33 1007.2
20260505000549 78 0.0 0.0 0.00 0.00 0.00 34 1007.1
20260504235515 78 0.0 0.0 0.00 0.00 0.00 35 1007.1
20260504234541 78 0.0 0.0 0.00 0.00 0.00 34 1007.3
20260504233403 78 0.0 0.0 0.00 0.00 0.00 34 1007.4
20260504232433 78 0.0 0.0 0.00 0.00 0.00 35 1007.3
20260504231429 78 0.0 0.0 0.00 0.00 0.00 36 1007.4
20260504230343 78 0.0 0.0 0.00 0.00 0.00 35 1007.4
20260504225423 77 0.0 0.0 0.00 0.00 0.00 36 1007.6
20260504224410 77 0.0 0.0 0.00 0.00 0.00 37 1007.7
20260504223240 77 0.0 0.0 0.00 0.00 0.00 37 1007.9
20260504222244 76 0.0 0.0 0.00 0.00 0.00 36 1008.0
20260504221213 76 0.0 0.0 0.00 0.00 0.00 37 1008.0
20260504220210 76 0.0 0.0 0.00 0.00 0.00 36 1008.1
20260504215251 76 0.0 0.0 0.00 0.00 0.00 38 1008.1
20260504214150 76 0.0 0.0 0.00 0.00 0.00 38 1008.2
20260504213219 76 0.0 0.0 0.00 0.00 0.00 40 1008.0
20260504212220 76 0.0 0.0 0.00 0.00 0.00 40 1008.2
20260504211214 76 0.0 0.0 0.00 0.00 0.00 40 1008.1
20260504210053 75 0.0 0.0 0.00 0.00 0.00 40 1008.2
20260504205110 75 0.0 0.0 0.00 0.00 0.00 42 1008.3
20260504204113 75 0.0 0.0 0.00 0.00 0.00 42 1008.4
20260504203009 75 0.0 0.0 0.00 0.00 0.00 42 1008.4
20260504201835 74 0.0 0.0 0.00 0.00 0.00 42 1008.5
20260504200834 74 0.0 0.0 0.00 0.00 0.00 43 1008.3
20260504195829 74 0.0 0.0 0.00 0.00 0.00 44 1008.4
20260504194913 74 0.0 0.0 0.00 0.00 0.00 44 1008.5
20260504193843 73 0.0 0.0 0.00 0.00 0.00 44 1008.7
20260504192733 73 0.0 0.0 0.00 0.00 0.00 44 1008.7
20260504191641 72 0.0 0.0 0.00 0.00 0.00 44 1008.9
20260504190644 72 0.0 0.0 0.00 0.00 0.00 44 1009.0
20260504185540 71 0.0 0.0 0.00 0.00 0.00 44 1009.0
20260504184406 71 0.0 0.0 0.00 0.00 0.00 44 1009.1
20260504183338 70 0.0 0.0 0.00 0.00 0.00 47 1009.2
20260504182417 69 0.0 0.0 0.00 0.00 0.00 46 1009.2
20260504181336 69 0.0 0.0 0.00 0.00 0.00 48 1009.3
20260504180300 69 0.0 0.0 0.00 0.00 0.00 49 1009.3
20260504175132 68 0.0 0.0 0.00 0.00 0.00 51 1009.5
20260504174016 67 0.0 0.0 0.00 0.00 0.00 50 1009.4
20260504172902 66 0.0 0.0 0.00 0.00 0.00 50 1009.3
20260504171736 66 0.0 0.0 0.00 0.00 0.00 51 1009.3
20260504170814 65 0.0 0.0 0.00 0.00 0.00 51 1009.5
20260504160359 61 0.0 0.0 0.00 0.00 0.00 58 1009.5
20260504151147 58 0.0 0.0 0.00 0.00 0.00 60 1009.0
20260504140918 56 0.0 0.0 0.00 0.00 0.00 65 1008.9
20260504130658 56 0.0 0.0 0.00 0.00 0.00 64 1008.4
20260504120256 55 0.0 0.0 0.00 0.00 0.00 62 1008.4
20260504100251 58 0.0 0.0 0.00 0.00 0.00 62 1008.1